Location: Stony Creek
(40.9500°S, 175.8500°E)
Time: 10:11:54
(UTC+00:00)

IRS-1D - Pass Details

Date: 15 May 2026
Orbit: 737 x 810 km, 98.8° (Epoch: 9 June)

Event Time Altitude Azimuth Distance (km) Brightness Sun altitude
Rises 16:29:58 0° 22° (NNE) 3,292 7.0 -31.6°
Reaches altitude 10° 16:32:18 10° 24° (NNE) 2,361 6.2 -31.1°
Enters shadow 16:36:26 54° 46° (NE) 953 4.1 -30.4°
